Canton, GA

4:36 AM EDT on October 16, 2019 (GMT -0400)
Canton

Weather History for KCNI - September, 2019

Change the Weather History Date:

Friday, September 20, 2019

  Actual Average (WUND) Record (WUND)
Temperature  
Mean Temperature 71 °F -  
Max Temperature 82 °F - - (-1)
Min Temperature 60 °F - - (-1)
Cooling Degree Days 6    
Growing Degree Days 21 (Base 50)    
Moisture  
Dew Point 54 °F    
Average Humidity 59    
Maximum Humidity 82    
Minimum Humidity 34    
Precipitation  
Precipitation 0.00 in - - ()
Sea Level Pressure  
Sea Level Pressure 30.29 in    
Wind  
Wind Speed 3 mph (East)    
Max Wind Speed 9 mph    
Max Gust Speed 17 mph    
Visibility 10 miles    
Events      
Averages and records for this station are not official NWS values.
T = Trace of Precipitation, MM = Missing Value Source: NWS Daily Summary

Daily Weather History Graph

Daily Weather History Graph

Search for Another Location

Airport or City:

Astronomy

Sep. 20, 2019 Rise Set
Actual Time 7:24 AM EDT 7:37 PM EDT
Civil Twilight 6:59 AM EDT 8:02 PM EDT
Nautical Twilight 6:29 AM EDT 8:31 PM EDT
Astronomical Twilight 6:00 AM EDT 9:01 PM EDT
Moon 11:42 PM EDT (9/20) 1:13 PM EDT (9/20)
Length of Visible Light 13h 03m
Length of Day
12h 13m
Waning Gibbous, 65% of the Moon is Illuminated
Sep 20
Waning Gibbous
Sep 21
Last Quarter
Sep 28
New
Oct 5
First Quarter
Oct 13
Full

Hourly Weather History & Observations

Time (EDT) Temp. Dew Point Humidity Pressure Visibility Wind Dir Wind Speed Gust Speed Precip Events Conditions
12:10 AM 66.2 °F 55.4 °F 68% 30.27 in 10.0 mi ENE 4.6 mph - N/A   Overcast
12:30 AM 64.4 °F 55.4 °F 73% 30.27 in 10.0 mi East 3.5 mph - N/A   Scattered Clouds
12:50 AM 64.4 °F 55.4 °F 73% 30.27 in 10.0 mi ENE 4.6 mph - N/A   Clear
1:10 AM 64.4 °F 55.4 °F 73% 30.28 in 10.0 mi ENE 3.5 mph - N/A   Scattered Clouds
1:30 AM 64.4 °F 55.4 °F 73% 30.28 in 10.0 mi Calm Calm - N/A   Overcast
1:50 AM 64.4 °F 55.4 °F 73% 30.28 in 10.0 mi ENE 5.8 mph - N/A   Mostly Cloudy
2:10 AM 64.4 °F 55.4 °F 73% 30.29 in 10.0 mi Calm Calm - N/A   Mostly Cloudy
2:30 AM 64.4 °F 55.4 °F 73% 30.28 in 10.0 mi East 3.5 mph - N/A   Overcast
2:50 AM 62.6 °F 55.4 °F 77% 30.28 in 10.0 mi East 3.5 mph - N/A   Overcast
3:10 AM 62.6 °F 55.4 °F 77% 30.28 in 10.0 mi Calm Calm - N/A   Mostly Cloudy
3:30 AM 62.6 °F 55.4 °F 77% 30.28 in 10.0 mi Calm Calm - N/A   Scattered Clouds
3:50 AM 62.6 °F 55.4 °F 77% 30.28 in 10.0 mi Calm Calm - N/A   Clear
4:10 AM 62.6 °F 55.4 °F 77% 30.27 in 10.0 mi East 3.5 mph - N/A   Clear
4:30 AM 60.8 °F 55.4 °F 82% 30.27 in 10.0 mi Calm Calm - N/A   Clear
4:50 AM 60.8 °F 55.4 °F 82% 30.28 in 10.0 mi ENE 3.5 mph - N/A   Clear
5:10 AM 60.8 °F 55.4 °F 82% 30.28 in 10.0 mi Calm Calm - N/A   Clear
5:30 AM 60.8 °F 55.4 °F 82% 30.28 in 10.0 mi Calm Calm - N/A   Clear
5:50 AM 60.8 °F 55.4 °F 82% 30.29 in 10.0 mi Calm Calm - N/A   Clear
6:10 AM 60.8 °F 55.4 °F 82% 30.30 in 10.0 mi ENE 3.5 mph - N/A   Clear
6:30 AM 60.8 °F 55.4 °F 82% 30.30 in 10.0 mi ENE 4.6 mph - N/A   Clear
6:50 AM 60.8 °F 55.4 °F 82% 30.31 in 10.0 mi ENE 3.5 mph - N/A   Clear
7:10 AM 60.8 °F 55.4 °F 82% 30.31 in 10.0 mi ENE 4.6 mph - N/A   Clear
7:30 AM 60.8 °F 55.4 °F 82% 30.32 in 10.0 mi ENE 4.6 mph - N/A   Clear
7:50 AM 60.8 °F 55.4 °F 82% 30.33 in 10.0 mi ENE 3.5 mph - N/A   Clear
8:10 AM 60.8 °F 55.4 °F 82% 30.33 in 10.0 mi ENE 3.5 mph - N/A   Clear
8:30 AM 62.6 °F 55.4 °F 77% 30.33 in 10.0 mi Calm Calm - N/A   Clear
9:10 AM 64.4 °F 55.4 °F 73% 30.34 in 10.0 mi East 4.6 mph - N/A   Clear
9:50 AM 68.0 °F 53.6 °F 60% 30.34 in 10.0 mi ENE 8.1 mph - N/A   Clear
10:10 AM 68.0 °F 53.6 °F 60% 30.35 in 10.0 mi East 3.5 mph - N/A   Clear
10:30 AM 69.8 °F 53.6 °F 56% 30.35 in 10.0 mi East 3.5 mph - N/A   Clear
10:50 AM 69.8 °F 53.6 °F 56% 30.35 in 10.0 mi SE 3.5 mph - N/A   Clear
11:10 AM 71.6 °F 53.6 °F 53% 30.35 in 10.0 mi East 4.6 mph - N/A   Clear
11:30 AM 71.6 °F 51.8 °F 50% 30.36 in 10.0 mi Calm Calm - N/A   Clear
11:50 AM 73.4 °F 51.8 °F 47% 30.35 in 10.0 mi ENE 6.9 mph - N/A   Clear
12:10 PM 75.2 °F 50.0 °F 41% 30.35 in 10.0 mi SE 6.9 mph - N/A   Clear
12:50 PM 77.0 °F 50.0 °F 39% 30.33 in 10.0 mi ENE 4.6 mph - N/A   Clear
1:10 PM 77.0 °F 50.0 °F 39% 30.32 in 10.0 mi Calm Calm - N/A   Clear
1:30 PM 78.8 °F 50.0 °F 36% 30.32 in 10.0 mi East 3.5 mph - N/A   Clear
1:50 PM 78.8 °F 50.0 °F 36% 30.31 in 10.0 mi ESE 3.5 mph - N/A   Clear
2:10 PM 78.8 °F 50.0 °F 36% 30.30 in 10.0 mi SE 8.1 mph 17.3 mph N/A   Clear
2:30 PM 78.8 °F 50.0 °F 36% 30.30 in 10.0 mi East 9.2 mph - N/A   Clear
2:50 PM 78.8 °F 50.0 °F 36% 30.29 in 10.0 mi ESE 8.1 mph - N/A   Clear
3:10 PM 80.6 °F 50.0 °F 34% 30.28 in 10.0 mi ESE 4.6 mph - N/A   Clear
3:30 PM 80.6 °F 50.0 °F 34% 30.27 in 10.0 mi ESE 9.2 mph - N/A   Clear
3:50 PM 80.6 °F 51.8 °F 37% 30.27 in 10.0 mi ESE 4.6 mph - N/A   Clear
4:10 PM 80.6 °F 51.8 °F 37% 30.27 in 10.0 mi East 8.1 mph - N/A   Clear
4:30 PM 80.6 °F 51.8 °F 37% 30.27 in 10.0 mi SSE 4.6 mph - N/A   Clear
4:50 PM 80.6 °F 51.8 °F 37% 30.26 in 10.0 mi ENE 3.5 mph - N/A   Clear
5:10 PM 82.4 °F 51.8 °F 35% 30.26 in 10.0 mi ESE 6.9 mph - N/A   Clear
5:30 PM 80.6 °F 51.8 °F 37% 30.26 in 10.0 mi East 5.8 mph - N/A   Clear
5:50 PM 80.6 °F 51.8 °F 37% 30.26 in 10.0 mi SE 5.8 mph - N/A   Clear
6:10 PM 80.6 °F 51.8 °F 37% 30.26 in 10.0 mi Calm Calm - N/A   Clear
6:30 PM 80.6 °F 51.8 °F 37% 30.26 in 10.0 mi East 4.6 mph - N/A   Clear
6:50 PM 78.8 °F 53.6 °F 42% 30.26 in 10.0 mi East 4.6 mph - N/A   Clear
7:10 PM 78.8 °F 53.6 °F 42% 30.26 in 10.0 mi East 3.5 mph - N/A   Clear
7:30 PM 77.0 °F 53.6 °F 44% 30.27 in 10.0 mi ESE 3.5 mph - N/A   Clear
7:50 PM 75.2 °F 53.6 °F 47% 30.27 in 10.0 mi ESE 3.5 mph - N/A   Clear
8:10 PM 73.4 °F 53.6 °F 50% 30.27 in 10.0 mi Calm Calm - N/A   Clear
8:30 PM 73.4 °F 55.4 °F 53% 30.28 in 10.0 mi Calm Calm - N/A   Clear
8:50 PM 71.6 °F 55.4 °F 57% 30.28 in 10.0 mi Calm Calm - N/A   Clear
9:10 PM 71.6 °F 55.4 °F 57% 30.28 in 10.0 mi Calm Calm - N/A   Clear
9:30 PM 69.8 °F 55.4 °F 60% 30.29 in 10.0 mi Calm Calm - N/A   Clear
9:50 PM 69.8 °F 55.4 °F 60% 30.30 in 10.0 mi Calm Calm - N/A   Clear
10:10 PM 68.0 °F 55.4 °F 64% 30.30 in 10.0 mi Calm Calm - N/A   Clear
10:30 PM 68.0 °F 55.4 °F 64% 30.30 in 10.0 mi Calm Calm - N/A   Clear
10:50 PM 68.0 °F 55.4 °F 64% 30.30 in 10.0 mi Calm Calm - N/A   Clear
11:10 PM 68.0 °F 55.4 °F 64% 30.30 in 10.0 mi Calm Calm - N/A   Clear
11:30 PM 64.4 °F 57.2 °F 77% 30.31 in 10.0 mi Calm Calm - N/A   Clear
11:50 PM 62.6 °F 57.2 °F 82% 30.31 in 10.0 mi Calm Calm - N/A   Clear